K3GM Weather Reports


Display with metric or nautical units.
time (UTC)temp
F
wind
direction
speed
MPH
gust
MPH
rain 1hr
in
rain 24hr
in
rain mn
in
humidity
%
barometer
mb
20260905091543 73 0 0.0 0.0 0.00 0.00 0.00 69 1011.0
20260905090044 73 0 0.0 0.0 0.00 0.00 0.00 76 1011.1
20260905084541 73 0 0.0 0.0 0.00 0.00 0.00 76 1011.0
20260905083040 73 0 0.0 0.0 0.00 0.00 0.00 76 1010.7
20260905081544 73 0 0.0 0.0 0.00 0.00 0.00 75 1010.8
20260905080047 74 0 0.0 0.0 0.00 0.00 0.00 75 1010.9
20260905074541 74 0 0.0 0.0 0.00 0.00 0.00 76 1010.7
20260905073039 74 0 0.0 0.0 0.00 0.00 0.00 77 1010.7
20260905071538 74 0 0.0 0.0 0.00 0.00 0.00 77 1010.9
20260905070041 73 0 0.0 0.0 0.00 0.00 0.00 79 1011.0
20260905064545 73 0 0.0 0.0 0.00 0.00 0.00 82 1010.9
20260905063039 73 0 0.0 0.0 0.00 0.00 0.00 84 1011.2
20260905061542 73 0 0.0 0.0 0.00 0.00 0.00 84 1011.2
20260905060046 73 0 0.0 0.0 0.00 0.00 0.00 85 1011.4
20260905054538 73 0 0.0 0.0 0.00 0.00 0.00 85 1011.4
20260905053037 74 0 0.0 0.0 0.00 0.00 0.00 84 1011.4
20260905051540 74 0 0.0 0.0 0.00 0.00 0.00 82 1011.6
20260905050039 74 0 0.0 0.0 0.00 0.00 0.00 83 1011.9
20260905044544 74 0 0.0 0.0 0.00 0.00 0.00 81 1011.6
20260905043050 75 0 0.0 0.0 0.00 0.00 0.00 81 1011.7
20260905041541 77 0 0.0 0.0 0.00 0.00 0.00 80 1011.6
20260905040053 78 0 0.0 0.0 0.00 0.00 0.00 77 1011.7
20260905034542 78 0 0.0 0.0 0.00 0.00 0.00 77 1011.7
20260905033037 78 0 0.0 0.0 0.00 0.00 0.00 75 1011.6
20260905031542 79 0 0.0 0.0 0.00 0.00 0.00 74 1011.7
20260905030038 79 0 0.0 0.0 0.00 0.00 0.00 75 1011.5
20260905024539 79 0 0.0 0.0 0.00 0.00 0.00 75 1011.6
20260905023041 79 0 0.0 0.0 0.00 0.00 0.00 76 1011.7
20260905021538 80 0 0.0 0.0 0.00 0.00 0.00 75 1011.6
20260905020048 80 0 0.0 0.0 0.00 0.00 0.00 74 1011.5
20260905014542 80 0 0.0 0.0 0.00 0.00 0.00 74 1011.5
20260905013048 79 0 0.0 0.0 0.00 0.00 0.00 76 1011.5
20260905011619 79 0 0.0 0.0 0.00 0.00 0.00 75 1011.7
20260905010043 79 0 0.0 0.0 0.00 0.00 0.00 76 1011.7
20260905004543 79 0 0.0 0.0 0.00 0.00 0.00 74 1011.5
20260905003044 80 0 0.0 0.0 0.00 0.00 0.00 73 1011.3
20260905001552 81 0 0.0 0.0 0.00 0.00 0.00 71 1011.1
20260905000045 82 0 0.0 0.0 0.00 0.00 0.00 69 1011.1
20260904234542 82 0 0.0 0.0 0.00 0.00 0.00 67 1011.1
20260904233044 82 0 0.0 0.0 0.00 0.00 0.00 67 1011.0
20260904231542 83 0 0.0 0.0 0.00 0.00 0.00 60 1011.1
20260904230043 83 0 0.0 0.0 0.00 0.00 0.00 66 1011.1
20260904224540 83 0 0.0 0.0 0.00 0.00 0.00 65 1011.3
20260904223044 84 0 0.0 0.0 0.00 0.00 0.00 57 1011.1
20260904221544 84 0 0.0 0.0 0.00 0.00 0.00 64 1011.4
20260904220043 84 0 0.0 0.0 0.00 0.00 0.00 57 1011.4
20260904214541 84 0 0.0 0.0 0.00 0.00 0.00 55 1011.5
20260904213038 84 0 0.0 0.0 0.00 0.00 0.00 58 1011.4
20260904211543 85 0 0.0 0.0 0.00 0.00 0.00 62 1011.3
20260904210039 85 0 0.0 0.0 0.00 0.00 0.00 64 1011.0
20260904204544 84 0 0.0 0.0 0.00 0.00 0.00 58 1011.1
20260904203044 85 0 0.0 0.0 0.00 0.00 0.00 58 1011.2
20260904201544 84 0 0.0 0.0 0.00 0.00 0.00 58 1011.5
20260904200042 85 0 0.0 0.0 0.00 0.00 0.00 57 1011.6
20260904194605 85 0 0.0 0.0 0.00 0.00 0.00 62 1011.5
20260904193043 86 0 0.0 0.0 0.00 0.00 0.00 61 1011.8
20260904191542 85 0 0.0 0.0 0.00 0.00 0.00 57 1012.1
20260904190043 86 0 0.0 0.0 0.00 0.00 0.00 64 1012.4
20260904184543 84 0 0.0 0.0 0.00 0.00 0.00 57 1012.4
20260904183105 85 0 0.0 0.0 0.00 0.00 0.00 57 1012.7
20260904181558 85 0 0.0 0.0 0.00 0.00 0.00 66 1012.7
20260904180044 84 0 0.0 0.0 0.00 0.00 0.00 59 1012.8
20260904174541 84 0 0.0 0.0 0.00 0.00 0.00 59 1012.8
20260904173039 83 0 0.0 0.0 0.00 0.00 0.00 58 1012.8
20260904171543 83 0 0.0 0.0 0.00 0.00 0.00 65 1012.9
20260904170044 84 0 0.0 0.0 0.00 0.00 0.00 58 1012.9
20260904164546 85 0 0.0 0.0 0.00 0.00 0.00 56 1013.0
20260904163046 84 0 0.0 0.0 0.00 0.00 0.00 59 1012.8
20260904161544 84 0 0.0 0.0 0.00 0.00 0.00 58 1013.0
20260904160045 84 0 0.0 0.0 0.00 0.00 0.00 58 1013.1
20260904154548 84 0 0.0 0.0 0.00 0.00 0.00 62 1012.9
20260904153040 83 0 0.0 0.0 0.00 0.00 0.00 62 1013.0
20260904151544 83 0 0.0 0.0 0.00 0.00 0.00 68 1013.1
20260904150043 83 0 0.0 0.0 0.00 0.00 0.00 64 1013.0
20260904144543 82 0 0.0 0.0 0.00 0.00 0.00 71 1012.8
20260904143041 82 0 0.0 0.0 0.00 0.00 0.00 73 1013.0
20260904141544 81 0 0.0 0.0 0.00 0.00 0.00 70 1013.0
20260904140046 80 0 0.0 0.0 0.00 0.00 0.00 69 1013.0
20260904134546 80 0 0.0 0.0 0.00 0.00 0.00 72 1012.9
20260904133043 79 0 0.0 0.0 0.00 0.00 0.00 72 1013.0
20260904131541 78 0 0.0 0.0 0.00 0.00 0.00 81 1012.9
20260904130042 78 0 0.0 0.0 0.00 0.00 0.00 74 1012.9
20260904124537 77 0 0.0 0.0 0.00 0.00 0.00 76 1013.0
20260904123044 77 0 0.0 0.0 0.00 0.00 0.00 84 1012.9
20260904121541 76 0 0.0 0.0 0.00 0.00 0.00 85 1012.9
20260904120048 75 0 0.0 0.0 0.00 0.00 0.00 87 1012.8
20260904114540 75 0 0.0 0.0 0.00 0.00 0.00 87 1012.6
20260904113043 75 0 0.0 0.0 0.00 0.00 0.00 87 1012.7
20260904111548 74 0 0.0 0.0 0.00 0.00 0.00 88 1012.3
20260904110043 74 0 0.0 0.0 0.00 0.00 0.00 88 1012.1
20260904104550 74 0 0.0 0.0 0.00 0.01 0.00 88 1012.1
20260904103043 74 0 0.0 0.0 0.00 0.01 0.00 90 1011.8
20260904101543 74 0 0.0 0.0 0.00 0.01 0.00 90 1011.9
20260904100043 75 0 0.0 0.0 0.00 0.01 0.00 89 1011.7
20260904094543 75 0 0.0 0.0 0.00 0.14 0.00 89 1011.9
20260904093047 75 0 0.0 0.0 0.00 0.14 0.00 89 1011.9